QPF
0.00 0.00 0.00 0.00 0.01 0.00 0.00 0.00 0.00 0.00 0.00 0.00 0.00 0.00 0.00 0.00 0.00 0.00 0.00 0.00 0.01 0.04 0.03 0.01 0.00 0.00 0.01 0.01 0.00 0.02 0.01 0.01 0.00 0.00 0.00 0.00 0.00 0.00 0.00 0.00 0.00 0.00 0.00
0.02 0.02 0.01 0.05 0.03 0.00 0.00 0.00 0.00 0.00 0.00 0.00 0.00 0.00 0.00 0.00 0.00 0.00 0.00 0.00 0.00 0.01 0.02 0.03 0.00 0.00 0.00 0.00 0.00 0.03 0.02 0.01 0.00 0.00 0.00 0.00 0.00 0.00 0.00 0.00 0.00 0.00 0.00
0.02 0.04 0.05 0.05 0.05 0.02 0.00 0.00 0.00 0.00 0.00 0.00 0.00 0.00 0.00 0.00 0.00 0.00 0.00 0.00 0.00 0.00 0.00 0.01 0.00 0.00 0.00 0.00 0.01 0.04 0.01 0.00 0.00 0.00 0.00 0.00 0.00 0.00 0.00 0.00 0.00 0.00 0.00
0.04 0.04 0.04 0.04 0.05 0.04 0.01 0.00 0.00 0.00 0.00 0.00 0.00 0.00 0.00 0.00 0.00 0.00 0.00 0.00 0.00 0.00 0.00 0.00 0.00 0.00 0.00 0.00 0.03 0.04 0.00 0.00 0.01 0.00 0.00 0.00 0.00 0.00 0.00 0.00 0.00 0.00 0.00
0.03 0.03 0.03 0.06 0.05 0.06 0.03 0.01 0.00 0.00 0.00 0.00 0.00 0.00 0.00 0.00 0.00 0.00 0.00 0.00 0.00 0.00 0.00 0.00 0.01 0.01 0.00 0.01 0.07 0.03 0.00 0.00 0.00 0.00 0.00 0.00 0.00 0.00 0.00 0.00 0.00 0.00 0.00
0.04 0.04 0.05 0.06 0.08 0.06 0.04 0.01 0.00 0.00 0.00 0.00 0.00 0.00 0.00 0.00 0.00 0.00 0.00 0.00 0.00 0.00 0.00 0.00 0.02 0.01 0.00 0.01 0.06 0.02 0.00 0.00 0.00 0.00 0.00 0.00 0.00 0.00 0.00 0.00 0.00 0.00 0.00
0.04 0.02 0.02 0.05 0.06 0.07 0.06 0.03 0.01 0.00 0.00 0.00 0.00 0.00 0.00 0.00 0.00 0.00 0.00 0.00 0.00 0.00 0.00 0.00 0.02 0.00 0.00 0.00 0.02 0.03 0.00 0.00 0.00 0.00 0.00 0.00 0.00 0.00 0.00 0.00 0.00 0.00 0.00
0.04 0.04 0.01 0.02 0.04 0.05 0.07 0.06 0.02 0.01 0.00 0.00 0.00 0.00 0.00 0.00 0.00 0.00 0.00 0.00 0.00 0.00 0.00 0.00 0.01 0.01 0.00 0.00 0.00 0.01 0.00 0.00 0.00 0.00 0.00 0.00 0.00 0.00 0.00 0.00 0.00 0.00 0.00
0.01 0.05 0.04 0.02 0.03 0.04 0.03 0.04 0.04 0.02 0.00 0.00 0.00 0.00 0.00 0.00 0.00 0.00 0.00 0.00 0.00 0.00 0.00 0.00 0.00 0.01 0.01 0.01 0.01 0.00 0.00 0.00 0.00 0.00 0.00 0.00 0.00 0.00 0.00 0.00 0.00 0.00 0.00
0.00 0.01 0.02 0.02 0.02 0.03 0.03 0.02 0.01 0.02 0.01 0.00 0.00 0.00 0.00 0.00 0.00 0.00 0.00 0.00 0.00 0.00 0.00 0.00 0.00 0.00 0.01 0.01 0.01 0.00 0.00 0.00 0.00 0.00 0.00 0.00 0.00 0.00 0.00 0.00 0.00 0.00 0.00
0.02 0.01 0.03 0.04 0.01 0.02 0.02 0.03 0.01 0.01 0.01 0.01 0.01 0.00 0.00 0.00 0.00 0.00 0.00 0.00 0.00 0.00 0.00 0.00 0.00 0.00 0.00 0.00 0.00 0.00 0.00 0.00 0.00 0.00 0.00 0.00 0.00 0.00 0.00 0.00 0.00 0.00 0.00
0.03 0.04 0.03 0.03 0.02 0.02 0.02 0.02 0.02 0.01 0.01 0.02 0.01 0.00 0.00 0.00 0.00 0.00 0.00 0.00 0.00 0.00 0.00 0.00 0.00 0.00 0.00 0.00 0.00 0.00 0.00 0.00 0.00 0.00 0.00 0.00 0.00 0.00 0.00 0.00 0.00 0.00 0.00
0.02 0.02 0.02 0.02 0.02 0.03 0.03 0.03 0.04 0.04 0.03 0.03 0.03 0.01 0.00 0.00 0.00 0.00 0.00 0.00 0.00 0.00 0.00 0.00 0.00 0.00 0.00 0.00 0.00 0.00 0.00 0.00 0.00 0.00 0.00 0.00 0.01 0.00 0.00 0.00 0.00 0.00 0.00
0.04 0.04 0.02 0.02 0.02 0.02 0.03 0.04 0.04 0.04 0.03 0.03 0.04 0.03 0.01 0.00 0.00 0.00 0.00 0.00 0.00 0.00 0.00 0.00 0.00 0.00 0.00 0.00 0.00 0.00 0.00 0.00 0.00 0.00 0.00 0.00 0.00 0.01 0.00 0.00 0.00 0.00 0.00
0.10 0.09 0.06 0.04 0.02 0.02 0.02 0.03 0.02 0.02 0.02 0.03 0.03 0.04 0.03 0.02 0.01 0.00 0.00 0.00 0.00 0.00 0.00 0.00 0.00 0.00 0.00 0.00 0.00 0.00 0.00 0.00 0.00 0.00 0.00 0.00 0.00 0.00 0.00 0.00 0.00 0.00 0.00
0.11 0.09 0.06 0.03 0.02 0.02 0.02 0.02 0.02 0.01 0.01 0.01 0.02 0.02 0.02 0.02 0.02 0.01 0.00 0.00 0.00 0.00 0.00 0.00 0.00 0.00 0.00 0.00 0.00 0.00 0.00 0.00 0.00 0.00 0.00 0.00 0.00 0.00 0.00 0.00 0.00 0.00 0.00
0.08 0.10 0.09 0.05 0.02 0.01 0.02 0.02 0.01 0.01 0.01 0.01 0.00 0.01 0.01 0.01 0.02 0.02 0.01 0.00 0.00 0.00 0.00 0.00 0.00 0.00 0.00 0.00 0.00 0.00 0.00 0.00 0.00 0.00 0.00 0.00 0.00 0.00 0.00 0.00 0.00 0.00 0.00
0.03 0.04 0.06 0.06 0.02 0.00 0.00 0.01 0.01 0.01 0.00 0.00 0.00 0.00 0.01 0.00 0.00 0.00 0.00 0.00 0.00 0.00 0.00 0.00 0.00 0.00 0.00 0.00 0.00 0.00 0.00 0.00 0.00 0.00 0.00 0.00 0.00 0.00 0.00 0.00 0.00 0.00 0.00
0.00 0.00 0.01 0.02 0.02 0.00 0.00 0.00 0.00 0.01 0.01 0.01 0.01 0.00 0.00 0.00 0.00 0.00 0.00 0.00 0.00 0.00 0.00 0.00 0.00 0.00 0.00 0.00 0.00 0.00 0.00 0.00 0.00 0.00 0.00 0.00 0.00 0.00 0.00 0.00 0.00 0.00 0.00
0.00 0.00 0.00 0.00 0.01 0.00 0.00 0.00 0.00 0.00 0.00 0.00 0.01 0.01 0.00 0.00 0.00 0.00 0.00 0.00 0.00 0.00 0.00 0.00 0.00 0.00 0.00 0.00 0.00 0.00 0.00 0.00 0.00 0.00 0.00 0.00 0.00 0.00 0.00 0.00 0.00 0.00 0.00
0.00 0.00 0.00 0.00 0.00 0.00 0.00 0.00 0.00 0.00 0.00 0.00 0.00 0.00 0.00 0.00 0.00 0.00 0.00 0.00 0.00 0.00 0.00 0.00 0.00 0.00 0.00 0.00 0.00 0.00 0.00 0.00 0.00 0.00 0.00 0.00 0.00 0.00 0.00 0.00 0.00 0.00 0.00
0.00 0.00 0.00 0.00 0.00 0.00 0.00 0.00 0.00 0.00 0.00 0.00 0.00 0.00 0.00 0.00 0.00 0.00 0.00 0.00 0.00 0.00 0.00 0.00 0.00 0.00 0.00 0.00 0.00 0.00 0.00 0.00 0.00 0.00 0.00 0.00 0.00 0.00 0.00 0.00 0.00 0.00 0.00
0.00 0.00 0.00 0.00 0.00 0.00 0.00 0.00 0.00 0.00 0.00 0.00 0.00 0.00 0.00 0.00 0.00 0.00 0.00 0.00 0.00 0.00 0.00 0.00 0.00 0.00 0.00 0.00 0.00 0.00 0.00 0.00 0.00 0.00 0.00 0.00 0.00 0.00 0.00 0.00 0.00 0.00 0.00
0.00 0.00 0.00 0.00 0.00 0.00 0.00 0.00 0.00 0.00 0.00 0.00 0.00 0.00 0.00 0.00 0.00 0.00 0.00 0.00 0.00 0.00 0.00 0.00 0.00 0.00 0.00 0.00 0.00 0.00 0.00 0.00 0.00 0.00 0.00 0.00 0.00 0.00 0.00 0.00 0.00 0.00 0.00
0.00 0.00 0.00 0.00 0.00 0.00 0.00 0.00 0.00 0.00 0.00 0.00 0.00 0.00 0.00 0.00 0.00 0.00 0.00 0.00 0.00 0.00 0.00 0.00 0.00 0.00 0.00 0.00 0.00 0.00 0.00 0.00 0.00 0.00 0.00 0.00 0.00 0.00 0.00 0.00 0.00 0.00 0.00
0.00 0.00 0.00 0.00 0.00 0.00 0.00 0.00 0.00 0.00 0.00 0.00 0.00 0.00 0.00 0.00 0.00 0.00 0.00 0.00 0.00 0.00 0.00 0.00 0.00 0.00 0.00 0.00 0.00 0.00 0.00 0.00 0.00 0.00 0.00 0.00 0.00 0.00 0.00 0.00 0.00 0.00 0.00
MSLP
1013.90 1014.35 1014.70 1015.11 1015.45 1015.89 1016.25 1016.61 1016.96 1017.49 1017.78 1017.92 1017.97 1018.25 1018.60 1018.74 1018.89 1019.28 1019.49 1019.35 1019.55 1019.82 1020.07 1020.33 1020.70 1020.95 1021.18 1021.44 1021.76 1022.24 1022.44 1022.68 1023.00 1023.09 1023.13 1023.27 1023.36 1023.50 1023.65 1023.82 1023.97 1024.03 1023.95
1013.30 1013.87 1014.32 1014.88 1015.40 1015.64 1016.10 1016.48 1016.79 1017.27 1017.82 1017.95 1018.26 1018.29 1018.56 1018.77 1019.03 1019.36 1019.53 1019.63 1019.57 1020.05 1020.15 1020.50 1020.74 1021.00 1021.23 1021.57 1021.89 1022.34 1022.61 1022.87 1023.18 1023.39 1023.48 1023.55 1023.68 1023.77 1023.96 1024.04 1024.14 1024.22 1024.26
1012.77 1013.41 1014.06 1014.60 1015.04 1015.59 1015.95 1016.48 1016.91 1017.19 1017.74 1017.87 1018.09 1018.44 1018.48 1018.72 1019.04 1019.39 1019.50 1019.73 1019.87 1020.01 1020.22 1020.49 1020.66 1020.90 1021.03 1021.63 1021.92 1022.25 1022.66 1022.96 1023.34 1023.58 1023.72 1023.86 1023.99 1024.14 1024.27 1024.35 1024.52 1024.58 1024.60
1012.35 1012.92 1013.58 1014.21 1014.61 1015.28 1015.66 1016.11 1016.85 1017.31 1017.57 1017.93 1018.31 1018.56 1018.59 1018.78 1018.99 1019.23 1019.60 1019.77 1020.11 1020.30 1020.44 1020.45 1020.71 1020.70 1021.10 1021.56 1021.64 1022.22 1022.54 1023.07 1023.41 1023.63 1023.87 1024.15 1024.19 1024.37 1024.57 1024.75 1024.83 1024.92 1024.97
1011.83 1012.41 1013.00 1013.49 1014.20 1014.89 1015.39 1015.93 1016.42 1016.87 1017.44 1017.88 1018.18 1018.55 1018.49 1018.72 1018.86 1019.17 1019.64 1019.83 1020.11 1020.34 1020.43 1020.56 1020.74 1020.85 1021.03 1021.34 1021.59 1022.08 1022.39 1023.02 1023.46 1023.75 1024.06 1024.21 1024.44 1024.55 1024.71 1024.89 1024.98 1025.11 1025.23
1011.30 1011.88 1012.50 1013.10 1013.59 1014.48 1015.16 1015.72 1016.13 1016.57 1016.98 1017.62 1018.10 1018.72 1018.75 1018.76 1018.89 1019.15 1019.46 1019.74 1020.07 1020.34 1020.53 1020.60 1020.78 1021.03 1021.12 1021.26 1021.64 1022.00 1022.35 1022.76 1023.24 1023.60 1024.02 1024.32 1024.48 1024.71 1024.90 1025.07 1025.20 1025.32 1025.41
1010.53 1011.22 1011.95 1012.56 1013.17 1013.68 1014.28 1014.86 1015.65 1016.28 1016.82 1017.49 1018.36 1019.28 1019.32 1019.28 1019.33 1019.40 1019.51 1019.58 1019.99 1020.25 1020.50 1020.70 1020.70 1021.03 1021.22 1021.39 1021.62 1021.96 1022.32 1022.59 1023.12 1023.50 1023.86 1024.17 1024.46 1024.68 1024.94 1025.16 1025.35 1025.49 1025.65
1009.76 1010.54 1011.10 1011.83 1012.54 1013.24 1013.86 1014.41 1015.09 1015.82 1016.40 1016.74 1017.27 1018.22 1019.54 1019.97 1019.71 1019.67 1019.77 1019.90 1020.01 1020.05 1020.40 1020.64 1020.73 1020.87 1021.15 1021.50 1021.68 1022.10 1022.37 1022.56 1022.87 1023.24 1023.68 1024.06 1024.45 1024.72 1024.90 1025.13 1025.31 1025.46 1025.61
1009.28 1009.68 1010.34 1010.96 1011.79 1012.42 1012.98 1013.63 1014.21 1015.27 1015.36 1016.04 1016.15 1016.59 1018.58 1019.22 1019.77 1020.00 1020.00 1020.03 1020.21 1020.00 1020.21 1020.48 1020.77 1020.91 1020.99 1021.35 1021.55 1021.83 1022.33 1022.52 1022.74 1023.09 1023.48 1023.81 1024.24 1024.56 1024.80 1025.03 1025.28 1025.47 1025.65
1008.73 1008.90 1009.38 1010.17 1010.76 1011.51 1012.12 1012.71 1013.45 1014.50 1014.83 1015.47 1015.99 1015.88 1016.27 1017.25 1018.85 1019.96 1020.10 1020.04 1020.20 1020.15 1020.24 1020.47 1020.59 1020.81 1021.00 1021.08 1021.36 1021.65 1022.04 1022.39 1022.65 1022.89 1023.20 1023.60 1023.96 1024.36 1024.66 1024.88 1025.13 1025.39 1025.66
1008.28 1008.32 1008.62 1009.15 1009.85 1010.51 1011.18 1011.70 1012.55 1012.85 1014.17 1014.36 1015.25 1015.82 1016.38 1017.07 1017.47 1018.51 1019.27 1019.79 1020.19 1020.08 1020.25 1020.32 1020.33 1020.55 1020.85 1021.06 1021.15 1021.51 1021.94 1022.25 1022.51 1022.71 1022.89 1023.19 1023.56 1023.96 1024.34 1024.64 1024.95 1025.21 1025.52
1007.78 1007.81 1007.96 1008.29 1008.86 1009.70 1010.41 1011.01 1011.65 1012.26 1013.08 1013.99 1014.72 1014.64 1015.54 1016.26 1016.98 1017.62 1018.48 1018.98 1019.44 1019.87 1019.98 1020.24 1020.37 1020.40 1020.46 1020.82 1020.82 1021.22 1021.70 1021.99 1022.24 1022.39 1022.54 1022.72 1022.99 1023.41 1023.86 1024.22 1024.59 1024.91 1025.17
1006.86 1006.90 1007.22 1007.47 1008.07 1008.98 1009.78 1010.44 1011.05 1011.76 1012.26 1013.13 1013.83 1014.33 1015.25 1015.50 1016.03 1017.10 1017.84 1018.66 1019.06 1019.61 1019.88 1019.97 1019.97 1020.18 1020.18 1020.31 1020.55 1020.71 1021.08 1021.45 1021.76 1021.95 1022.06 1022.19 1022.45 1022.72 1023.29 1023.72 1024.09 1024.49 1024.79
1006.11 1006.32 1006.47 1006.79 1007.46 1008.40 1009.07 1009.74 1010.39 1011.11 1011.77 1012.38 1013.10 1013.74 1014.33 1015.13 1015.82 1016.30 1017.02 1017.80 1018.70 1019.08 1019.52 1019.42 1019.49 1019.64 1019.82 1019.91 1020.03 1020.48 1020.88 1021.07 1021.22 1021.43 1021.66 1021.66 1021.90 1022.20 1022.61 1022.96 1023.35 1023.75 1024.22
1006.13 1005.80 1005.91 1006.24 1007.06 1007.86 1008.49 1009.08 1009.66 1010.40 1011.09 1011.76 1012.52 1013.16 1013.89 1014.58 1014.89 1015.93 1016.16 1016.50 1017.16 1018.32 1019.08 1018.95 1019.22 1019.01 1019.21 1019.56 1019.78 1020.18 1020.39 1020.58 1020.87 1021.12 1021.22 1021.40 1021.51 1021.65 1021.96 1022.36 1022.78 1023.17 1023.53
1006.86 1005.54 1005.56 1005.83 1006.45 1007.24 1007.86 1008.51 1009.10 1009.81 1010.47 1011.14 1011.84 1012.57 1013.24 1013.90 1014.73 1015.07 1015.38 1015.82 1015.93 1016.86 1018.00 1018.19 1018.49 1018.39 1018.73 1018.98 1019.21 1019.62 1019.74 1020.07 1020.31 1020.51 1020.74 1020.99 1021.21 1021.39 1021.54 1021.86 1022.15 1022.57 1023.03
1007.47 1006.28 1005.22 1005.49 1005.99 1006.63 1007.34 1008.02 1008.65 1009.32 1009.95 1010.69 1011.34 1012.09 1012.73 1013.40 1013.86 1014.34 1014.78 1015.24 1015.69 1016.26 1017.26 1017.72 1017.77 1018.12 1018.67 1018.65 1018.93 1019.15 1019.35 1019.66 1019.89 1019.99 1020.12 1020.32 1020.57 1020.89 1021.13 1021.34 1021.57 1021.88 1022.42
1008.46 1006.85 1005.48 1004.97 1005.39 1006.15 1006.87 1007.58 1008.35 1008.96 1009.57 1010.28 1011.04 1011.74 1012.29 1012.91 1013.39 1013.77 1014.29 1014.83 1015.32 1015.66 1016.54 1017.11 1017.51 1017.99 1018.24 1018.33 1018.41 1018.91 1019.03 1019.17 1019.36 1019.29 1019.44 1019.72 1019.93 1020.15 1020.34 1020.60 1020.92 1021.29 1021.76
1009.67 1007.91 1006.35 1005.37 1005.30 1006.20 1006.69 1007.39 1007.98 1008.63 1009.26 1009.93 1010.70 1011.20 1011.83 1012.50 1012.97 1013.31 1013.64 1014.17 1014.72 1015.45 1015.82 1016.49 1017.01 1017.39 1017.92 1018.19 1018.71 1018.79 1018.86 1018.96 1018.91 1018.86 1018.97 1019.03 1019.21 1019.21 1019.54 1020.02 1020.36 1020.69 1020.90
1010.37 1008.02 1008.35 1007.64 1005.50 1006.48 1007.14 1007.54 1007.90 1008.49 1009.10 1009.83 1010.36 1010.84 1011.42 1011.96 1012.45 1012.85 1013.09 1013.72 1014.44 1014.93 1015.52 1015.98 1016.47 1017.12 1017.49 1018.00 1018.24 1018.63 1018.66 1018.44 1018.30 1018.31 1018.29 1018.36 1018.47 1018.60 1018.95 1019.12 1019.45 1019.80 1020.31
1010.49 1009.17 1010.34 1009.41 1007.68 1007.18 1007.85 1008.14 1008.30 1008.54 1009.08 1009.68 1010.20 1010.68 1011.14 1011.45 1011.78 1012.24 1012.60 1013.15 1013.61 1014.17 1014.78 1015.25 1015.82 1016.54 1017.03 1017.55 1017.56 1017.49 1018.01 1017.84 1018.02 1018.26 1018.06 1018.07 1017.99 1018.01 1018.02 1018.26 1018.72 1019.04 1019.42
1012.03 1010.68 1010.99 1008.95 1009.04 1008.71 1008.82 1008.58 1008.66 1009.10 1009.30 1009.60 1010.12 1010.51 1010.85 1011.11 1011.38 1011.74 1012.11 1012.36 1012.63 1013.31 1013.83 1014.27 1014.72 1015.09 1015.57 1015.93 1016.24 1016.51 1016.93 1017.59 1017.86 1017.15 1017.57 1017.38 1017.46 1017.57 1017.58 1017.46 1017.62 1018.17 1018.77
1012.08 1011.61 1011.71 1010.69 1010.82 1009.51 1009.47 1009.03 1008.97 1009.55 1009.76 1010.03 1010.17 1010.37 1010.63 1010.78 1011.03 1011.42 1011.76 1011.99 1012.41 1012.52 1012.84 1013.31 1013.66 1013.89 1014.25 1014.77 1015.05 1015.43 1015.93 1016.11 1016.16 1016.41 1016.83 1016.95 1016.99 1016.75 1016.78 1017.00 1017.03 1017.51 1017.98
1012.87 1012.31 1012.01 1012.31 1011.13 1009.89 1010.22 1009.61 1009.53 1009.74 1010.01 1010.19 1010.37 1010.51 1010.41 1010.47 1010.71 1011.05 1011.42 1011.63 1011.90 1012.10 1012.38 1012.67 1012.88 1013.11 1013.31 1013.42 1013.88 1014.23 1014.35 1015.08 1015.89 1016.03 1016.10 1016.59 1016.40 1016.16 1016.18 1016.51 1016.58 1017.02 1017.24
1013.12 1012.83 1012.96 1012.81 1011.45 1010.51 1010.35 1009.79 1009.71 1009.95 1010.21 1010.17 1010.31 1010.60 1010.68 1010.54 1010.68 1010.79 1010.94 1011.22 1011.36 1011.47 1011.54 1011.71 1011.96 1012.24 1012.56 1012.78 1013.04 1013.60 1014.25 1014.94 1015.37 1015.63 1015.93 1016.02 1016.09 1016.27 1016.38 1016.30 1016.44 1016.54 1016.75
1013.77 1013.20 1012.81 1011.99 1010.54 1011.21 1010.73 1010.23 1010.11 1010.22 1010.29 1010.21 1010.34 1010.49 1010.53 1010.47 1010.71 1010.76 1010.69 1010.74 1010.84 1011.00 1011.23 1011.49 1011.73 1011.87 1012.13 1012.22 1012.39 1012.63 1013.05 1013.70 1014.35 1015.08 1015.11 1015.65 1015.88 1016.27 1016.65 1016.12 1016.10 1016.28 1016.26
Thickness
5661 5660 5659 5660 5660 5661 5661 5661 5663 5663 5665 5667 5671 5672 5672 5673 5674 5673 5674 5676 5677 5676 5676 5675 5674 5673 5673 5672 5671 5669 5668 5667 5665 5665 5666 5665 5665 5664 5663 5662 5661 5660 5661
5655 5655 5655 5654 5653 5654 5655 5655 5656 5657 5657 5661 5662 5666 5666 5667 5668 5667 5669 5670 5672 5670 5672 5670 5669 5669 5669 5667 5666 5664 5663 5662 5660 5660 5659 5659 5659 5658 5657 5656 5655 5655 5654
5650 5648 5647 5647 5647 5646 5648 5647 5648 5650 5651 5653 5656 5658 5661 5661 5662 5662 5663 5665 5665 5666 5666 5665 5665 5665 5666 5662 5661 5660 5658 5657 5655 5654 5653 5653 5652 5651 5650 5649 5648 5648 5647
5646 5644 5642 5641 5640 5640 5641 5642 5641 5641 5643 5645 5646 5649 5653 5654 5655 5656 5656 5657 5658 5658 5658 5660 5660 5662 5660 5658 5659 5656 5655 5651 5650 5649 5647 5646 5645 5644 5643 5642 5641 5640 5640
5641 5640 5639 5637 5634 5633 5634 5635 5635 5636 5635 5637 5640 5640 5646 5647 5649 5649 5649 5649 5651 5651 5653 5654 5654 5655 5655 5654 5654 5651 5650 5646 5644 5642 5640 5639 5638 5637 5636 5635 5635 5633 5632
5635 5634 5634 5632 5630 5627 5627 5626 5628 5629 5630 5629 5631 5629 5635 5639 5641 5642 5642 5643 5643 5644 5646 5647 5648 5648 5648 5648 5647 5645 5644 5642 5639 5637 5635 5633 5632 5631 5629 5628 5627 5626 5624
5630 5628 5628 5627 5625 5625 5624 5623 5622 5621 5621 5621 5618 5616 5620 5626 5630 5633 5635 5637 5635 5637 5638 5639 5642 5641 5640 5640 5640 5639 5637 5637 5634 5631 5629 5627 5626 5624 5622 5621 5619 5617 5616
5620 5621 5623 5621 5620 5617 5617 5616 5616 5615 5616 5618 5619 5614 5609 5612 5618 5623 5625 5627 5628 5630 5631 5631 5633 5634 5633 5632 5633 5631 5629 5630 5628 5626 5623 5621 5618 5616 5615 5613 5612 5610 5609
5611 5613 5615 5616 5614 5613 5613 5613 5613 5609 5613 5613 5618 5617 5603 5609 5609 5610 5614 5617 5618 5623 5624 5624 5625 5626 5628 5626 5627 5626 5622 5622 5621 5619 5617 5615 5612 5610 5608 5606 5604 5602 5600
5601 5606 5609 5609 5610 5609 5609 5610 5609 5605 5608 5607 5608 5615 5617 5612 5604 5604 5603 5607 5609 5613 5616 5617 5618 5618 5619 5621 5620 5620 5617 5615 5614 5613 5612 5609 5606 5603 5600 5598 5596 5593 5591
5588 5596 5600 5602 5603 5605 5606 5607 5605 5609 5602 5599 5603 5601 5603 5604 5604 5602 5605 5600 5598 5603 5606 5609 5612 5612 5612 5612 5612 5611 5609 5607 5606 5605 5605 5603 5600 5597 5593 5591 5588 5585 5582
5574 5583 5590 5594 5597 5597 5599 5601 5601 5602 5601 5598 5596 5596 5598 5600 5601 5598 5594 5597 5598 5594 5597 5600 5602 5604 5605 5604 5605 5604 5602 5600 5598 5598 5597 5596 5594 5591 5587 5583 5580 5577 5574
5563 5575 5581 5586 5589 5589 5590 5591 5593 5594 5595 5594 5594 5594 5591 5593 5596 5590 5586 5583 5587 5585 5587 5590 5593 5595 5597 5597 5597 5597 5596 5594 5592 5591 5590 5589 5587 5585 5580 5576 5572 5568 5565
5553 5562 5570 5576 5579 5578 5581 5583 5585 5586 5587 5589 5589 5588 5588 5588 5586 5584 5581 5577 5573 5577 5578 5584 5587 5588 5588 5590 5591 5589 5588 5588 5587 5585 5583 5583 5581 5579 5575 5571 5566 5562 5557
5536 5549 5558 5565 5565 5566 5569 5573 5577 5578 5579 5581 5581 5582 5581 5580 5581 5574 5576 5576 5577 5571 5573 5576 5579 5583 5583 5582 5583 5582 5582 5582 5579 5577 5576 5574 5573 5572 5570 5566 5560 5554 5550
5512 5536 5546 5553 5556 5557 5560 5562 5567 5569 5570 5572 5574 5574 5575 5574 5569 5569 5572 5572 5580 5574 5572 5574 5573 5577 5577 5578 5577 5576 5577 5575 5573 5571 5570 5567 5565 5563 5562 5559 5554 5548 5542
5491 5513 5534 5540 5545 5547 5549 5552 5556 5559 5562 5563 5565 5565 5566 5565 5567 5566 5566 5569 5570 5570 5567 5567 5569 5568 5567 5569 5569 5569 5568 5568 5566 5565 5564 5562 5559 5556 5553 5550 5546 5541 5534
5468 5495 5516 5530 5534 5535 5539 5543 5545 5548 5552 5555 5555 5556 5558 5557 5559 5561 5562 5562 5561 5562 5561 5562 5560 5559 5559 5561 5562 5561 5560 5560 5559 5559 5557 5555 5552 5550 5547 5543 5538 5533 5526
5450 5469 5499 5511 5522 5521 5527 5530 5534 5537 5541 5544 5545 5548 5548 5547 5550 5553 5556 5555 5555 5552 5554 5554 5556 5552 5550 5550 5548 5549 5550 5550 5551 5550 5548 5548 5546 5544 5541 5535 5530 5524 5519
5432 5454 5466 5482 5504 5506 5510 5517 5524 5527 5531 5532 5536 5538 5539 5540 5541 5543 5548 5547 5544 5545 5543 5545 5546 5543 5542 5540 5540 5539 5537 5540 5542 5542 5542 5540 5537 5536 5530 5526 5522 5516 5508
5413 5438 5439 5453 5478 5490 5493 5501 5509 5517 5520 5522 5525 5529 5530 5532 5534 5536 5539 5539 5540 5540 5539 5539 5540 5533 5534 5531 5533 5534 5533 5534 5533 5531 5532 5530 5528 5527 5524 5519 5513 5507 5500
5396 5414 5419 5447 5454 5467 5474 5486 5495 5500 5507 5513 5516 5518 5521 5523 5526 5528 5530 5532 5536 5535 5535 5535 5535 5533 5534 5532 5529 5529 5527 5522 5526 5527 5521 5523 5519 5518 5515 5512 5507 5500 5493
5387 5401 5406 5426 5433 5452 5460 5473 5483 5484 5490 5495 5502 5507 5510 5514 5516 5518 5519 5521 5524 5528 5529 5529 5531 5532 5531 5527 5524 5522 5517 5520 5524 5518 5512 5514 5508 5510 5507 5502 5498 5492 5485
5373 5388 5397 5403 5421 5440 5445 5458 5468 5473 5477 5483 5487 5492 5499 5504 5507 5509 5510 5514 5516 5519 5521 5522 5523 5523 5521 5521 5520 5518 5518 5513 5507 5506 5504 5502 5499 5501 5497 5494 5488 5481 5478
5362 5373 5380 5387 5407 5424 5436 5448 5457 5462 5466 5473 5477 5479 5485 5492 5495 5499 5502 5506 5509 5512 5513 5514 5514 5514 5513 5512 5510 5507 5504 5499 5499 5495 5489 5487 5488 5483 5480 5482 5477 5472 5469
5349 5361 5368 5387 5409 5408 5423 5435 5444 5450 5455 5462 5468 5471 5476 5482 5483 5487 5493 5497 5501 5502 5502 5502 5504 5505 5503 5503 5503 5502 5500 5495 5492 5483 5482 5475 5473 5468 5465 5468 5466 5461 5459